When you browse on this site, cookies collect data to enhance your experience and personalize the content and advertising you see.
Visit our Privacy Policy to learn more. By continuing to use the site, you agree to this use of cookies and data.
  • In Latvia
  • List of Countries
  • For 7 days
  • Water Temperature
  • Weather Map
  • Weather Widgets
  • user-avatar
    Login

    Hourly Weather Townsville

    Today, 26 January, Sunday

    Time Temperature Precipitation Wind Pressure Humidity
    00:00 +29°C° 0.1 mm 3 mps 750 mmHg 85%
    01:00 +28°C° 0.1 mm 3 mps 749 mmHg 86%
    02:00 +28°C° 0.7 mm 2 mps 749 mmHg 86%
    03:00 +28°C° 0.7 mm 2 mps 749 mmHg 86%
    04:00 +27°C° 0 mm 2 mps 749 mmHg 84%
    05:00 +27°C° 0.2 mm 2 mps 749 mmHg 84%
    06:00 +27°C° 0.2 mm 2 mps 750 mmHg 84%
    07:00 +27°C° 0.2 mm 2 mps 751 mmHg 84%
    08:00 +27°C° 0.4 mm 3 mps 751 mmHg 85%
    09:00 +28°C° 0.4 mm 3 mps 751 mmHg 86%
    10:00 +28°C° 0.4 mm 3 mps 751 mmHg 86%
    11:00 +28°C° 0.1 mm 3 mps 750 mmHg 84%
    12:00 +28°C° 0.1 mm 2 mps 750 mmHg 81%
    13:00 +29°C° 0.1 mm 2 mps 750 mmHg 78%
    14:00 +29°C° 0 mm 2 mps 749 mmHg 76%
    15:00 +30°C° 0 mm 2 mps 748 mmHg 74%
    16:00 +30°C° 0 mm 2 mps 748 mmHg 73%
    17:00 +29°C° 0 mm 2 mps 748 mmHg 76%
    18:00 +29°C° 0 mm 2 mps 748 mmHg 79%
    19:00 +28°C° 0 mm 1 mps 748 mmHg 82%
    20:00 +28°C° 0 mm 1 mps 749 mmHg 83%
    21:00 +27°C° 0 mm 1 mps 749 mmHg 85%
    22:00 +27°C° 0 mm 1 mps 750 mmHg 87%
    23:00 +27°C° 0 mm 1 mps 749 mmHg 87%

    Tomorrow, 27 January, Monday

    Time Temperature Precipitation Wind Pressure Humidity
    00:00 +27°C° 0 mm 1 mps 749 mmHg 86%
    01:00 +27°C° 0 mm 2 mps 749 mmHg 86%
    02:00 +27°C° 0 mm 1 mps 749 mmHg 86%
    03:00 +27°C° 0 mm 1 mps 748 mmHg 85%
    04:00 +27°C° 0 mm 1 mps 748 mmHg 85%
    05:00 +28°C° 0.1 mm 1 mps 748 mmHg 84%
    06:00 +28°C° 0.1 mm 1 mps 749 mmHg 82%
    07:00 +28°C° 0.1 mm 1 mps 749 mmHg 81%
    08:00 +29°C° 0.1 mm 1 mps 750 mmHg 77%
    09:00 +30°C° 0.1 mm 1 mps 750 mmHg 74%
    10:00 +31°C° 0.1 mm 1 mps 750 mmHg 70%
    11:00 +31°C° 0.3 mm 2 mps 749 mmHg 69%
    12:00 +31°C° 0.3 mm 2 mps 749 mmHg 67%
    13:00 +33°C° 0.3 mm 3 mps 748 mmHg 66%
    14:00 +33°C° 0.1 mm 3 mps 748 mmHg 65%
    15:00 +33°C° 0.1 mm 3 mps 747 mmHg 64%
    16:00 +33°C° 0.1 mm 4 mps 747 mmHg 64%
    17:00 +31°C° 0.5 mm 3 mps 747 mmHg 69%
    18:00 +30°C° 0.5 mm 3 mps 748 mmHg 75%
    19:00 +29°C° 0.5 mm 3 mps 748 mmHg 80%
    20:00 +28°C° 2.2 mm 3 mps 748 mmHg 83%
    21:00 +28°C° 2.2 mm 3 mps 749 mmHg 86%
    22:00 +27°C° 2.2 mm 2 mps 750 mmHg 90%
    23:00 +27°C° 2.7 mm 3 mps 749 mmHg 91%

    Day after tomorrow, 28 January, Tuesday

    Time Temperature Precipitation Wind Pressure Humidity
    00:00 +27°C° 2.7 mm 3 mps 749 mmHg 93%
    01:00 +26°C° 2.7 mm 3 mps 749 mmHg 95%
    02:00 +26°C° 3 mm 3 mps 749 mmHg 95%
    03:00 +26°C° 3 mm 3 mps 748 mmHg 95%
    04:00 +26°C° 3 mm 4 mps 748 mmHg 96%
    05:00 +26°C° 1.5 mm 4 mps 748 mmHg 95%
    06:00 +26°C° 1.5 mm 4 mps 749 mmHg 95%
    07:00 +26°C° 1.5 mm 4 mps 749 mmHg 94%
    08:00 +26°C° 0.3 mm 4 mps 749 mmHg 92%
    09:00 +27°C° 0.3 mm 4 mps 750 mmHg 91%
    10:00 +27°C° 0.3 mm 4 mps 750 mmHg 89%
    11:00 +27°C° 0.2 mm 4 mps 750 mmHg 88%
    12:00 +27°C° 0.2 mm 4 mps 750 mmHg 88%
    13:00 +27°C° 0.2 mm 5 mps 749 mmHg 87%
    14:00 +27°C° 1.3 mm 5 mps 749 mmHg 89%
    15:00 +27°C° 1.3 mm 4 mps 749 mmHg 91%
    16:00 +26°C° 1.3 mm 4 mps 748 mmHg 93%
    17:00 +26°C° 0.9 mm 5 mps 749 mmHg 94%
    18:00 +26°C° 0.9 mm 5 mps 749 mmHg 94%
    19:00 +26°C° 0.9 mm 5 mps 750 mmHg 94%
    20:00 +26°C° 0.9 mm 5 mps 750 mmHg 95%
    21:00 +26°C° 0.9 mm 4 mps 751 mmHg 95%
    22:00 +26°C° 0.9 mm 4 mps 751 mmHg 95%
    23:00 +26°C° 1.6 mm 4 mps 751 mmHg 96%

    29 January, Wednesday

    Time Temperature Precipitation Wind Pressure Humidity
    00:00 +26°C° 1.6 mm 4 mps 750 mmHg 96%
    01:00 +26°C° 1.6 mm 4 mps 750 mmHg 96%
    02:00 +26°C° 0.9 mm 4 mps 750 mmHg 95%
    03:00 +26°C° 0.9 mm 4 mps 750 mmHg 95%
    04:00 +26°C° 0.9 mm 4 mps 749 mmHg 95%
    05:00 +26°C° 0.7 mm 3 mps 750 mmHg 94%
    06:00 +26°C° 0.7 mm 3 mps 750 mmHg 94%
    07:00 +26°C° 0.7 mm 3 mps 751 mmHg 93%
    08:00 +27°C° 0.6 mm 3 mps 751 mmHg 91%
    09:00 +27°C° 0.6 mm 3 mps 751 mmHg 89%
    10:00 +28°C° 0.6 mm 3 mps 752 mmHg 87%
    11:00 +29°C° 0.4 mm 3 mps 751 mmHg 82%
    12:00 +30°C° 0.4 mm 3 mps 751 mmHg 78%
    13:00 +30°C° 0.4 mm 4 mps 751 mmHg 73%
    14:00 +30°C° 0.5 mm 4 mps 750 mmHg 75%
    15:00 +30°C° 0.5 mm 4 mps 750 mmHg 77%
    16:00 +29°C° 0.5 mm 4 mps 749 mmHg 80%
    17:00 +28°C° 0.1 mm 4 mps 750 mmHg 82%
    18:00 +28°C° 0.1 mm 3 mps 750 mmHg 84%
    19:00 +27°C° 0.1 mm 2 mps 750 mmHg 86%
    20:00 +27°C° 0.1 mm 2 mps 751 mmHg 87%
    21:00 +27°C° 0.1 mm 2 mps 751 mmHg 87%
    22:00 +27°C° 0.1 mm 2 mps 751 mmHg 87%
    23:00 +27°C° 0.3 mm 2 mps 751 mmHg 88%

    30 January, Thursday

    Time Temperature Precipitation Wind Pressure Humidity
    00:00 +26°C° 0.3 mm 2 mps 751 mmHg 89%
    01:00 +26°C° 0.3 mm 2 mps 751 mmHg 90%
    02:00 +26°C° 0.1 mm 2 mps 750 mmHg 91%
    03:00 +26°C° 0.1 mm 2 mps 750 mmHg 91%
    04:00 +26°C° 0.1 mm 2 mps 750 mmHg 92%
    05:00 +26°C° 0.5 mm 2 mps 750 mmHg 91%
    06:00 +27°C° 0.5 mm 2 mps 751 mmHg 90%
    07:00 +27°C° 0.5 mm 2 mps 751 mmHg 89%
    08:00 +28°C° 0.9 mm 3 mps 751 mmHg 84%
    09:00 +29°C° 0.9 mm 3 mps 752 mmHg 80%
    10:00 +30°C° 0.9 mm 4 mps 752 mmHg 75%
    11:00 +32°C° 1.2 mm 4 mps 751 mmHg 73%
    12:00 +32°C° 1.2 mm 5 mps 751 mmHg 71%
    13:00 +33°C° 1.2 mm 5 mps 750 mmHg 68%
    14:00 +33°C° 0.4 mm 5 mps 750 mmHg 69%
    15:00 +33°C° 0.4 mm 6 mps 750 mmHg 69%
    16:00 +33°C° 0.4 mm 6 mps 749 mmHg 69%
    17:00 +32°C° 0.3 mm 5 mps 750 mmHg 73%
    18:00 +30°C° 0.3 mm 5 mps 750 mmHg 78%
    19:00 +29°C° 0.3 mm 5 mps 750 mmHg 82%
    20:00 +28°C° 0.2 mm 4 mps 751 mmHg 84%
    21:00 +28°C° 0.2 mm 4 mps 751 mmHg 87%
    22:00 +27°C° 0.2 mm 4 mps 752 mmHg 89%
    23:00 +27°C° 0.4 mm 4 mps 752 mmHg 89%

    31 January, Friday

    Time Temperature Precipitation Wind Pressure Humidity
    00:00 +27°C° 0.4 mm 4 mps 751 mmHg 90%
    01:00 +27°C° 0.4 mm 4 mps 751 mmHg 90%
    02:00 +27°C° 0.6 mm 4 mps 751 mmHg 90%
    03:00 +26°C° 0.6 mm 4 mps 750 mmHg 91%
    04:00 +26°C° 0.6 mm 4 mps 750 mmHg 91%
    05:00 +26°C° 0.3 mm 4 mps 751 mmHg 90%
    06:00 +27°C° 0.3 mm 3 mps 751 mmHg 90%
    07:00 +27°C° 0.3 mm 3 mps 752 mmHg 89%
    08:00 +28°C° 0.4 mm 4 mps 752 mmHg 82%
    09:00 +30°C° 0.4 mm 5 mps 752 mmHg 76%
    10:00 +32°C° 0.4 mm 5 mps 752 mmHg 69%
    11:00 +33°C° 0 mm 5 mps 752 mmHg 65%
    12:00 +33°C° 0 mm 5 mps 751 mmHg 62%
    13:00 +34°C° 0 mm 5 mps 751 mmHg 59%
    14:00 +34°C° 0.1 mm 6 mps 751 mmHg 60%
    15:00 +33°C° 0.1 mm 6 mps 750 mmHg 62%
    16:00 +33°C° 0.1 mm 6 mps 750 mmHg 64%
    17:00 +32°C° 0.4 mm 6 mps 750 mmHg 69%
    18:00 +30°C° 0.4 mm 5 mps 751 mmHg 74%
    19:00 +29°C° 0.4 mm 5 mps 751 mmHg 79%
    20:00 +28°C° 0.8 mm 5 mps 752 mmHg 82%
    21:00 +28°C° 0.8 mm 5 mps 752 mmHg 84%
    22:00 +27°C° 0.8 mm 4 mps 753 mmHg 87%
    23:00 +27°C° 0.4 mm 4 mps 752 mmHg 88%
    Show more